sat.trackr.live / text

‹ back to catalog

STARLINK-5189

NORAD 54052 · 2022-136B

PAYLOAD ACTIVE UNKNOWN

§ Identity

Operator
Country
US
Launch date
2022-10-20
Launch site
AFETR
Launch vehicle
Mass (kg)
RCS (m²)

Purposes: comms

External: N2YO · Heavens-Above · Gunter

§ Orbital elements

Epoch: 2026-09-19T22:40:31.986624Z

Period
95.44 min
Inclination
53.1605°
Eccentricity
0.0001491
Mean motion
15.08833779 rev/d
Perigee alt
538.7 km
Apogee alt
540.8 km
Semi-major
6,917.9 km
B*
6.3702e-5
RAAN
151.2320°
Arg perigee
97.2392°
Mean anomaly
262.8769°
Rev number
21,673

§ Raw data

STARLINK-51891 54052U 22136B   26262.94481466  .00000726  00000+0  63702-4 0  99962 54052  53.1605 151.2320 0001491  97.2392 262.8769 15.08833779216739

JSON: /api/v1/satellites/54052 · /tle

For live sub-satellite position, see the globe view (requires WebGL).

§ Visibility from observer

Set your observer location to see the next 7 days of passes ≥ 10°. The values pass through the URL so the page stays shareable.

No JS? Fill the form by hand. The geolocation button needs JavaScript.